Location: B�di�
(14.6834°N, 3.1047°W)
Time: 14:54:13
(UTC+00:00)

Cosmos 2237 Rocket - Pass Details

Date: 24 January 2020
Orbit: 837 x 848 km, 71.0° (Epoch: 22 February)

Event Time Altitude Azimuth Distance (km) Brightness Sun altitude
Rises 18:49:14 0° 343° (NNW) 3,377 5.3 -10.5°
Reaches altitude 10° 18:51:40 10° 342° (NNW) 2,443 4.6 -11.0°
Maximum altitude 18:57:16 86° 256° (WSW) 842 2.2 -12.3°
Drops below altitude 10° 19:02:54 10° 166° (SSE) 2,446 4.6 -13.6°
Sets 19:05:20 0° 165° (SSE) 3,381 5.4 -14.2°
